Location: Sihaung
(22.8641°N, 94.0549°E)
Time: 03:09:19
(UTC+00:00)

ASTRO E2 - Pass Details

Date: 03 March 2021
Orbit: 508 x 514 km, 31.4° (Epoch: 12 April)

Event Time Altitude Azimuth Distance (km) Brightness Sun altitude
Exits shadow 22:30:44 25° 355° (N) 1,045 4.2 -22.0°
Maximum altitude 22:31:14 26° 8° (N) 1,025 4.2 -21.9°
Drops below altitude 10° 22:34:37 10° 67° (ENE) 1,726 6.3 -21.1°
Sets 22:37:07 0° 80° (E) 2,611 7.8 -20.6°
